RH
52 40 29 33 44 48 48 49 48 52 59 65 66 65 63 61 59 55 51 47 45 45 43 40 38 37 39 44 53 63 64 61 58 55 54 52 50 49 49 49 48 49
44 30 28 39 47 50 51 51 54 63 68 65 58 53 52 53 52 51 52 52 52 51 47 44 42 40 38 40 49 60 65 65 62 59 57 54 53 53 51 50 50 51
31 28 36 46 50 52 53 56 63 66 59 51 46 47 52 57 57 59 62 63 63 61 57 53 52 50 48 48 51 55 59 63 64 62 60 57 55 55 53 53 52 52
31 37 44 49 52 55 58 63 66 61 54 50 49 50 57 64 66 68 70 71 71 68 66 65 66 66 65 61 60 59 57 57 62 63 62 60 58 56 55 54 54 53
38 45 48 51 55 58 64 67 65 62 59 57 53 53 59 66 69 72 73 74 73 73 73 73 74 76 76 75 74 73 66 62 63 64 65 65 62 61 59 57 57 56
44 48 51 53 58 63 68 68 66 66 63 58 54 56 63 68 72 74 75 75 77 80 81 80 80 79 80 82 82 81 78 75 70 66 68 70 68 66 64 62 61 60
48 51 53 56 61 66 69 69 69 68 60 55 55 61 68 73 75 77 77 79 82 84 85 85 86 85 84 85 85 84 85 85 79 71 69 70 70 69 69 67 65 64
53 55 56 61 65 68 71 71 69 62 56 58 63 68 73 76 79 80 82 84 85 86 88 87 87 86 85 84 84 85 85 86 86 82 77 74 70 70 71 71 68 65
56 59 61 66 70 72 73 70 64 60 61 67 72 75 78 80 83 85 85 87 87 88 88 89 89 86 85 85 84 86 87 87 88 87 86 84 79 75 74 74 73 70
60 61 66 73 76 75 72 68 67 68 72 76 78 80 82 83 86 87 88 90 90 91 89 91 92 88 87 89 88 88 89 89 90 89 88 89 88 86 82 79 79 78
64 64 72 79 77 75 73 73 76 78 79 80 81 83 85 87 89 90 91 92 92 93 92 92 93 91 90 91 91 91 90 90 91 92 92 92 91 93 92 88 85 83
66 67 75 80 76 75 76 78 81 82 82 83 85 88 88 89 91 91 92 93 93 94 94 93 93 92 92 91 90 91 91 89 91 91 92 93 91 91 93 93 90 84
69 69 74 77 76 79 81 81 81 82 85 87 87 90 91 90 92 92 92 93 93 93 93 92 92 92 92 92 90 90 90 89 89 90 91 91 90 90 90 90 92 90
72 71 74 77 80 82 83 83 84 84 87 89 89 91 92 92 92 92 93 92 92 92 92 91 91 90 90 90 90 89 91 92 92 94 95 92 91 92 92 91 90 90
75 75 77 81 84 85 86 88 89 88 89 91 92 92 92 92 92 92 93 92 91 91 90 90 91 90 90 92 95 96 97 99 100 100 97 93 91 90 91 92 91 89
78 79 81 84 87 88 90 92 92 91 92 93 94 93 92 92 92 92 92 92 92 91 90 91 90 89 92 98 101 101 101 101 101 101 97 94 92 90 89 89 89 91
81 83 86 88 90 91 92 93 93 93 93 94 93 93 92 92 92 93 93 92 91 90 90 91 90 90 97 103 102 100 100 100 100 101 99 95 94 96 96 91 88 88
84 87 90 90 92 94 94 94 94 94 94 94 93 93 92 92 93 93 92 91 91 91 91 90 89 93 101 103 101 100 98 94 94 98 99 98 96 97 98 97 94 93
88 90 92 93 95 95 94 95 95 94 94 94 93 93 93 94 94 93 92 92 91 90 91 89 88 94 102 103 101 96 85 76 79 90 98 100 99 97 97 95 94 93
91 93 95 96 97 96 95 96 95 95 94 94 94 94 95 95 94 93 92 92 91 90 91 89 87 93 102 102 93 78 67 69 80 91 98 99 96 96 95 93 92 91
94 96 97 98 97 96 96 96 96 96 95 95 95 95 96 96 94 94 93 91 90 90 90 89 89 95 100 94 80 65 60 73 88 93 98 98 95 94 94 92 90 88
96 98 99 99 97 97 98 97 97 98 96 95 96 96 95 95 94 93 92 91 90 89 91 90 87 93 97 87 77 68 63 73 87 92 97 98 95 93 92 90 89 87
98 99 99 99 99 99 99 98 98 98 96 96 97 96 95 94 94 93 91 92 91 88 90 91 85 90 98 91 81 73 70 79 90 93 96 96 92 89 87 88 89 89
99 101 100 100 100 100 99 99 98 98 97 96 96 97 96 94 93 93 91 90 90 87 88 91 88 90 99 99 89 78 76 82 88 91 94 94 90 88 87 89 91 89
100 100 101 100 100 100 99 99 98 98 96 95 95 96 96 94 92 93 92 88 87 87 86 89 89 86 92 101 95 83 80 83 86 91 97 96 91 89 89 91 92 92
99 100 101 100 100 99 98 98 98 97 95 94 95 94 94 94 92 92 92 88 85 86 84 85 86 83 87 97 93 81 79 83 86 91 97 97 93 92 94 96 95 95
Wind_Speed
27 31 30 26 22 23 24 26 25 23 22 22 23 25 26 27 28 30 32 33 33 33 33 33 34 34 35 35 34 33 33 34 35 36 37 39 39 38 38 37 36 35
31 32 29 25 22 22 24 25 21 19 20 23 26 29 30 30 32 33 33 34 34 33 34 34 34 33 33 34 33 33 32 32 33 34 34 37 38 37 38 38 37 36
33 33 29 25 23 25 25 21 18 19 24 28 31 32 31 32 32 32 32 32 34 35 35 35 34 33 32 32 32 31 31 31 32 32 33 35 36 36 38 37 36 36
33 31 28 25 25 25 22 18 19 25 29 32 35 34 33 33 32 31 32 33 34 36 35 34 33 32 31 31 31 30 30 30 31 31 31 34 35 35 37 36 35 35
31 29 27 26 24 22 18 19 25 30 32 34 36 36 34 33 32 32 35 36 36 37 36 35 33 31 30 31 30 29 29 30 29 29 30 32 33 33 34 34 34 35
29 28 27 25 21 18 18 24 30 33 34 36 37 36 34 32 33 34 37 38 37 36 36 35 33 32 31 31 30 29 30 30 30 31 31 32 34 34 34 34 34 35
29 28 27 23 18 18 24 31 35 36 37 38 38 35 33 33 35 36 38 39 38 36 35 34 34 33 31 30 31 32 32 32 33 33 33 34 36 37 37 36 36 37
29 29 25 20 19 24 30 35 37 38 39 39 37 35 34 34 36 37 38 38 38 37 35 34 34 33 32 32 32 34 35 35 34 34 34 35 37 38 38 38 38 39
29 28 22 20 24 29 34 37 39 40 39 37 36 36 35 35 36 37 38 38 37 35 34 33 33 33 34 34 34 35 36 37 37 35 35 36 37 38 39 38 39 40
29 27 20 22 30 33 36 38 38 38 38 36 36 36 35 36 36 36 37 36 34 33 33 32 33 34 35 34 34 33 34 36 37 37 38 38 38 39 39 39 39 40
29 25 21 26 33 35 37 38 36 36 36 35 35 35 36 37 37 36 35 34 33 33 33 33 33 33 33 33 32 30 31 33 34 35 36 37 38 40 40 40 40 42
26 23 23 29 34 36 37 37 36 36 36 34 33 35 37 39 38 37 35 34 34 33 33 33 33 32 31 32 32 31 32 33 34 36 37 39 41 42 42 42 42 43
25 24 26 31 35 37 37 37 37 36 34 34 34 36 39 39 38 38 36 34 34 34 33 34 34 33 33 34 36 37 38 39 41 41 41 41 43 43 43 42 41 42
25 26 29 33 35 36 36 36 36 35 34 35 36 38 39 39 39 39 37 36 36 36 36 36 36 37 38 39 41 42 41 43 43 41 39 38 39 39 40 40 39 40
26 28 31 33 34 35 34 33 33 34 35 37 38 38 39 39 39 38 38 39 39 39 39 39 39 40 40 39 40 40 40 40 39 37 37 37 36 36 37 37 38 40
28 30 32 33 34 35 34 33 33 35 38 39 39 39 39 40 40 40 39 40 40 41 41 40 40 41 40 39 39 40 40 39 38 37 37 37 37 36 38 40 40 41
31 33 34 35 36 35 35 36 37 39 40 40 40 41 41 41 41 41 40 40 41 42 43 42 42 41 39 40 41 41 41 41 39 38 37 37 38 38 40 43 43 42
33 35 36 37 38 38 38 39 40 40 40 41 42 42 43 42 41 40 41 41 41 42 43 44 44 42 40 42 43 43 44 45 44 42 40 39 39 39 40 41 41 40
34 35 37 38 39 39 40 40 40 40 40 40 42 43 42 41 40 41 42 42 42 43 44 45 46 44 42 43 44 46 48 49 48 45 42 40 41 41 41 41 41 40
35 36 38 39 40 40 41 40 40 40 40 40 41 42 41 40 41 41 42 43 43 43 45 47 47 45 43 44 47 49 49 48 47 44 40 39 39 38 38 39 39 39
36 38 39 41 41 41 41 41 40 40 40 41 41 40 39 40 41 41 42 44 44 44 45 48 48 46 45 47 49 49 48 46 44 41 38 36 36 35 35 35 36 36
38 40 41 42 42 41 41 41 40 40 41 42 41 40 40 40 41 42 43 44 46 45 45 47 49 48 47 49 50 49 48 46 43 38 35 34 34 34 34 34 34 35
40 40 40 41 41 40 40 40 40 41 42 40 39 41 42 42 42 43 44 44 45 46 45 46 49 49 47 48 51 50 48 46 41 36 34 33 34 35 34 34 35 36
39 38 39 40 40 40 40 41 41 42 41 40 39 41 42 43 44 44 45 45 45 46 46 46 48 49 47 47 49 50 48 45 40 35 32 32 32 33 33 32 33 34
38 38 38 38 39 40 40 41 41 41 41 41 41 40 41 44 44 43 44 46 47 47 47 45 46 49 48 46 47 49 48 46 41 32 27 28 29 29 29 29 28 29
38 38 38 38 38 40 41 41 40 40 42 43 42 42 42 43 43 42 43 46 47 47 47 47 46 47 47 46 47 49 48 46 40 30 23 23 25 25 25 25 25 25
Wind_Direction
346 346 344 339 334 333 335 336 337 341 345 348 346 341 338 335 332 330 327 325 324 321 319 318 315 314 312 311 311 310 306 299 289 281 272 264 260 256 254 252 249 247
343 343 341 338 334 333 334 336 340 345 347 346 341 336 332 328 326 325 324 323 322 320 319 318 315 314 311 309 308 305 303 300 294 287 278 269 265 260 256 255 251 248
341 340 341 339 334 333 336 339 343 345 343 340 338 334 329 326 324 323 323 322 321 320 319 319 316 314 312 309 307 303 298 296 294 291 284 275 269 264 260 257 253 249
339 338 338 335 332 334 337 340 341 341 339 337 335 332 328 325 324 323 322 322 321 319 319 318 316 313 311 308 307 303 298 294 291 290 286 280 274 267 263 259 254 251
335 335 334 333 331 333 336 338 338 338 336 334 332 330 326 324 322 321 320 320 320 319 317 316 314 311 309 308 306 303 300 296 293 290 287 283 279 272 266 261 256 254
333 332 332 332 330 331 334 335 335 335 334 332 329 327 325 322 320 319 319 319 319 317 316 314 312 310 308 307 304 301 300 297 294 293 290 286 283 278 272 265 260 256
333 332 333 332 326 329 332 332 333 333 331 328 326 325 323 320 318 318 318 318 317 315 313 311 309 308 307 304 302 300 298 297 294 293 291 287 285 281 275 270 263 258
333 333 334 330 326 331 333 332 331 330 327 326 325 323 322 319 317 318 317 317 315 313 310 308 306 306 304 302 300 298 296 295 293 291 289 286 284 281 277 273 267 260
335 335 333 330 332 334 333 331 328 327 326 325 323 322 321 319 318 317 317 315 313 310 309 307 305 305 304 302 299 297 295 293 291 289 287 285 282 280 278 276 271 264
336 335 329 331 336 334 331 328 326 325 324 323 321 320 319 318 317 317 315 314 311 309 308 306 304 305 304 302 300 299 296 294 292 289 285 283 281 279 279 278 274 269
334 333 328 331 333 331 328 326 324 323 322 320 319 319 318 318 317 316 315 313 309 308 307 305 304 304 303 301 299 298 296 294 292 289 286 283 281 279 278 277 274 270
331 330 328 330 329 326 325 324 323 322 321 319 318 318 318 318 317 316 314 311 308 307 305 304 303 302 299 298 296 294 293 290 288 287 285 283 281 279 277 274 271 268
329 328 326 326 325 324 324 323 323 322 320 319 317 317 317 316 315 314 312 309 307 305 303 302 302 299 297 295 294 292 290 288 287 284 282 281 278 276 275 272 269 266
325 325 323 323 323 323 323 322 322 321 318 317 316 316 315 314 314 312 310 308 305 303 302 301 299 297 296 294 293 291 288 286 283 279 277 278 277 275 272 269 268 266
322 322 322 322 322 321 321 320 319 319 317 316 315 315 314 313 312 311 308 307 305 303 302 301 299 297 296 294 292 289 286 283 280 277 276 277 277 275 273 270 266 266
321 321 322 322 321 321 320 319 318 318 317 316 315 315 314 314 313 311 309 307 306 305 303 301 300 298 296 293 290 288 287 284 282 279 277 276 275 274 274 273 271 268
321 321 321 321 321 320 320 319 319 319 318 317 316 316 315 315 314 311 310 308 306 305 304 302 300 299 297 295 293 291 288 285 282 281 278 276 274 271 270 271 271 270
322 322 321 321 321 320 320 320 319 319 318 318 317 316 316 315 313 311 309 308 307 305 303 302 301 300 298 297 295 292 289 286 285 282 280 277 274 271 270 269 269 270
322 321 321 320 320 320 320 320 320 319 318 317 316 316 315 313 312 310 309 308 307 305 303 302 301 301 300 297 294 292 292 292 289 285 280 277 274 271 270 269 269 270
322 321 321 320 321 322 321 320 320 319 318 317 316 316 314 312 311 310 309 308 307 305 303 302 302 301 299 296 294 295 297 296 293 290 286 282 280 276 273 272 270 270
323 323 322 322 322 323 321 320 319 318 318 318 317 315 313 312 311 310 309 308 307 305 303 302 301 301 298 297 298 299 300 297 294 293 289 285 285 282 277 275 274 273
325 324 323 322 322 322 320 319 319 318 319 318 317 315 313 312 311 310 308 308 307 306 303 301 301 301 299 299 301 302 302 299 295 292 289 286 286 284 280 278 275 272
324 323 322 321 321 321 320 319 319 318 318 319 317 314 314 313 312 311 309 307 306 305 303 301 301 301 300 299 301 302 301 298 293 289 287 285 285 284 281 279 275 270
323 322 321 320 320 320 319 319 319 319 318 318 316 313 312 312 312 311 310 308 306 305 303 301 300 301 300 298 299 301 300 296 291 287 284 282 283 284 282 279 277 272
322 322 321 320 320 319 320 320 319 319 318 318 316 314 312 312 312 310 309 309 308 307 305 303 300 301 301 298 298 300 299 294 289 283 278 278 281 283 283 282 280 277
323 322 321 321 320 320 320 320 320 319 319 318 317 315 314 313 312 311 309 309 310 309 308 307 304 303 302 299 298 301 300 294 288 281 275 277 280 281 282 282 283 280